Volver al catálogo

COSMOS 2251 DEB

ActivoLEO
NORAD 35759·DEBRIS·🇷🇺 Russia

Lanzado Jun 16, 1993 desde Plesetsk Cosmodrome

Loading…

Próximos Pases (próximas 24 horas)

TLE

ActualizadoSource: Space-Track

Época: Sep 13, 2026, 02:25 UTC

1 35759U 93036ARD 26256.10089344  .00000933  00000-0  17048-3 0  9998
2 35759  74.0357  48.0345 0074852  97.4938 263.4743 14.65632672701545

Sigue COSMOS 2251 DEB en tiempo real con AllMySat

Download on the App Store